Weather History for Cross City, FL

Change the Weather History Date:

Tuesday, May 12, 2009

  Actual Average Record
Temperature  
Mean Temperature 78 °F 74 °F  
Max Temperature 87 °F 87 °F 93 °F (2011)
Min Temperature 70 °F 60 °F 50 °F (2006)
Degree Days  
Heating Degree Days 0 0  
Month to date heating degree days 0  
Since 1 July heating degree days 1303  
Cooling Degree Days 13 9  
Month to date cooling degree days 85  
Year to date cooling degree days 267  
Growing Degree Days 28 (Base 50)    
Moisture  
Dew Point 66 °F    
Average Humidity 72    
Maximum Humidity 87    
Minimum Humidity 53    
Precipitation  
Precipitation 0.00 in 0.07 in 0.34 in (2003)
Month to date precipitation 0.86  
Year to date precipitation 15.34  
Sea Level Pressure  
Sea Level Pressure 30.04 in    
Wind  
Wind Speed 8 mph (NE)    
Max Wind Speed 13 mph    
Max Gust Speed 20 mph    
T = Trace of Precipitation, MM = Missing Value Source: NWS Daily Summary

Daily Weather History Graph

Daily Weather History Graph

Search for Another Location

Airport:

Trip Planner

Search our weather history database for the weather conditions in past years. The results will help you decide how hot, cold, wet, or windy it might be!

Date:

Astronomy

May. 12, 2009 Rise Set
Actual Time 6:41 AM EDT 8:16 PM EDT
Civil Twilight 6:15 AM EDT 8:42 PM EDT
Nautical Twilight 5:44 AM EDT 9:13 PM EDT
Astronomical Twilight 5:12 AM EDT 9:46 PM EDT
Moon 11:43 PM EDT (5/12) 9:05 AM EDT (5/12)
Length of Visible Light 14h 26m
Length of Day
13h 34m
Waning Gibbous, 89% of the Moon is Illuminated
May 12
Waning Gibbous
May 17
Last Quarter
May 24
New
May 30
First Quarter
Jun 7
Full

Hourly Weather History & Observations

Time (EDT) Temp. Heat Index Dew Point Humidity Pressure Visibility Wind Dir Wind Speed Gust Speed Precip Events Conditions
12:53 AM 73.0 °F - 66.9 °F 81% 30.00 in - NNW 8.1 mph - N/A   Unknown
1:53 AM 72.0 °F - 66.0 °F 81% 29.98 in - North 6.9 mph - N/A   Unknown
2:53 AM 72.0 °F - 66.0 °F 81% 29.98 in - NE 5.8 mph - N/A   Unknown
3:53 AM 72.0 °F - 66.0 °F 81% 29.97 in - ENE 6.9 mph - N/A   Unknown
4:53 AM 71.1 °F - 66.0 °F 84% 29.99 in - NE 6.9 mph - N/A   Unknown
5:53 AM 70.0 °F - 66.0 °F 87% 30.01 in - NE 4.6 mph - N/A   Unknown
6:53 AM 70.0 °F - 66.0 °F 87% 30.03 in - NE 4.6 mph - N/A   Unknown
7:53 AM 72.0 °F - 66.9 °F 84% 30.05 in - Variable 5.8 mph - N/A   Unknown
8:53 AM 75.0 °F - 68.0 °F 79% 30.06 in - ENE 9.2 mph - N/A   Unknown
9:53 AM 79.0 °F - 68.0 °F 69% 30.07 in - NE 10.4 mph 18.4 mph N/A   Unknown
10:53 AM 79.0 °F - 68.0 °F 69% 30.09 in - NE 9.2 mph - N/A   Unknown
11:53 AM 81.0 °F 83.3 °F 66.9 °F 62% 30.08 in - ENE 9.2 mph - N/A   Unknown
12:53 PM 84.0 °F 87.0 °F 68.0 °F 58% 30.08 in - NE 8.1 mph 16.1 mph N/A   Unknown
1:53 PM 84.0 °F 86.5 °F 66.9 °F 56% 30.06 in - NE 11.5 mph 18.4 mph N/A   Unknown
2:53 PM 86.0 °F 89.4 °F 68.0 °F 55% 30.05 in - NE 10.4 mph 19.6 mph N/A   Unknown
3:53 PM 86.0 °F 88.8 °F 66.9 °F 53% 30.02 in - NE 8.1 mph - N/A   Unknown
4:53 PM 84.0 °F 86.5 °F 66.9 °F 56% 30.02 in - NE 12.7 mph 18.4 mph N/A   Unknown
5:53 PM 80.1 °F 82.3 °F 66.9 °F 64% 30.04 in - East 10.4 mph 19.6 mph N/A   Unknown
6:53 PM 77.0 °F - 66.0 °F 69% 30.05 in - ENE 8.1 mph 17.3 mph N/A   Unknown
7:53 PM 75.0 °F - 64.9 °F 71% 30.06 in - ENE 8.1 mph - N/A   Unknown
8:53 PM 73.0 °F - 64.9 °F 76% 30.07 in - NE 8.1 mph - N/A   Unknown
9:53 PM 73.0 °F - 64.9 °F 76% 30.08 in - East 8.1 mph - N/A   Unknown
10:53 PM 71.1 °F - 64.0 °F 78% 30.11 in - NE 5.8 mph - N/A   Unknown
11:53 PM 71.1 °F - 64.0 °F 78% 30.12 in - ENE 3.5 mph - N/A   Unknown